• In Belarus
  • List of Countries
  • For 7 days
  • Water Temperature
  • Satellite Maps
  • Weather Map
  • Weather Widgets
  • user-avatar
    Login

    Hourly Weather Nevinnomyssk

    Today, 20 February, Tuesday

    Time Temperature Precipitation Wind Pressure Humidity
    00:00 +3°C° 0 mm 1 mps 708 mmHg 89%
    01:00 +3°C° 0 mm 1 mps 708 mmHg 89%
    02:00 +3°C° 0 mm 1 mps 708 mmHg 90%
    03:00 +1°C° 0 mm 2 mps 707 mmHg 89%
    04:00 +1°C° 0.1 mm 2 mps 707 mmHg 90%
    05:00 +1°C° 0.1 mm 2 mps 707 mmHg 90%
    06:00 +1°C° 0.1 mm 2 mps 707 mmHg 91%
    07:00 +1°C° 0.3 mm 2 mps 707 mmHg 90%
    08:00 +1°C° 0.3 mm 2 mps 707 mmHg 90%
    09:00 +1°C° 0 mm 2 mps 707 mmHg 90%
    10:00 +1°C° 0.4 mm 2 mps 707 mmHg 89%
    11:00 +2°C° 0.4 mm 2 mps 707 mmHg 88%
    12:00 +2°C° 0.4 mm 2 mps 707 mmHg 88%
    13:00 +2°C° 0.5 mm 2 mps 707 mmHg 88%
    14:00 +2°C° 0.5 mm 2 mps 707 mmHg 89%
    15:00 +1°C° 0.5 mm 3 mps 707 mmHg 90%
    16:00 +2°C° 0.2 mm 2 mps 707 mmHg 91%
    17:00 +1°C° 0.2 mm 2 mps 707 mmHg 92%
    18:00 +1°C° 0.2 mm 2 mps 707 mmHg 93%
    19:00 +1°C° 0.1 mm 2 mps 707 mmHg 93%
    20:00 0°C° 0.1 mm 3 mps 707 mmHg 94%
    21:00 0°C° 0.1 mm 3 mps 707 mmHg 94%
    22:00 -1°C° 0 mm 3 mps 707 mmHg 94%
    23:00 -1°C° 0 mm 3 mps 707 mmHg 94%

    Tomorrow, 21 February, Wednesday

    Time Temperature Precipitation Wind Pressure Humidity
    00:00 -1°C° 0 mm 3 mps 707 mmHg 94%
    01:00 -1°C° 0 mm 3 mps 707 mmHg 93%
    02:00 -1°C° 0 mm 3 mps 707 mmHg 93%
    03:00 -1°C° 0 mm 2 mps 707 mmHg 92%
    04:00 -1°C° 0 mm 3 mps 707 mmHg 92%
    05:00 -1°C° 0 mm 3 mps 707 mmHg 92%
    06:00 -1°C° 0 mm 3 mps 707 mmHg 92%
    07:00 -1°C° 0 mm 3 mps 707 mmHg 90%
    08:00 0°C° 0 mm 3 mps 707 mmHg 88%
    09:00 0°C° 0 mm 3 mps 707 mmHg 86%
    10:00 +1°C° 0 mm 3 mps 707 mmHg 83%
    11:00 +2°C° 0 mm 3 mps 707 mmHg 80%
    12:00 +3°C° 0 mm 3 mps 707 mmHg 78%
    13:00 +4°C° 0 mm 3 mps 706 mmHg 76%
    14:00 +4°C° 0 mm 4 mps 706 mmHg 75%
    15:00 +4°C° 0 mm 4 mps 706 mmHg 74%
    16:00 +3°C° 0 mm 4 mps 706 mmHg 78%
    17:00 +2°C° 0 mm 3 mps 706 mmHg 82%
    18:00 +1°C° 0 mm 3 mps 706 mmHg 86%
    19:00 +1°C° 0 mm 3 mps 706 mmHg 87%
    20:00 +1°C° 0 mm 3 mps 706 mmHg 88%
    21:00 0°C° 0 mm 3 mps 706 mmHg 89%
    22:00 0°C° 0 mm 3 mps 706 mmHg 88%
    23:00 0°C° 0 mm 3 mps 706 mmHg 88%

    Day after tomorrow, 22 February, Thursday

    Time Temperature Precipitation Wind Pressure Humidity
    00:00 +1°C° 0 mm 2 mps 705 mmHg 87%
    01:00 +1°C° 0 mm 2 mps 705 mmHg 86%
    02:00 +1°C° 0 mm 2 mps 705 mmHg 85%
    03:00 +1°C° 0 mm 2 mps 705 mmHg 84%
    04:00 +1°C° 0 mm 2 mps 705 mmHg 83%
    05:00 +1°C° 0 mm 2 mps 705 mmHg 82%
    06:00 +1°C° 0 mm 2 mps 705 mmHg 81%
    07:00 +2°C° 0 mm 2 mps 705 mmHg 77%
    08:00 +3°C° 0 mm 2 mps 705 mmHg 73%
    09:00 +4°C° 0 mm 2 mps 705 mmHg 70%
    10:00 +5°C° 0 mm 2 mps 705 mmHg 66%
    11:00 +6°C° 0 mm 2 mps 705 mmHg 63%
    12:00 +8°C° 0 mm 2 mps 705 mmHg 60%
    13:00 +8°C° 0 mm 2 mps 705 mmHg 60%
    14:00 +8°C° 0 mm 3 mps 705 mmHg 60%
    15:00 +9°C° 0 mm 3 mps 705 mmHg 60%
    16:00 +7°C° 0 mm 3 mps 705 mmHg 67%
    17:00 +5°C° 0 mm 3 mps 705 mmHg 74%
    18:00 +5°C° 0 mm 2 mps 705 mmHg 80%
    19:00 +4°C° 0 mm 2 mps 705 mmHg 82%
    20:00 +4°C° 0 mm 2 mps 705 mmHg 84%
    21:00 +3°C° 0 mm 2 mps 705 mmHg 86%
    22:00 +3°C° 0 mm 2 mps 705 mmHg 86%
    23:00 +3°C° 0 mm 2 mps 705 mmHg 86%

    23 February, Friday

    Time Temperature Precipitation Wind Pressure Humidity
    00:00 +3°C° 0 mm 2 mps 705 mmHg 86%
    01:00 +2°C° 0 mm 2 mps 705 mmHg 85%
    02:00 +2°C° 0 mm 2 mps 705 mmHg 85%
    03:00 +2°C° 0 mm 2 mps 704 mmHg 85%
    04:00 +2°C° 0 mm 2 mps 704 mmHg 84%
    05:00 +2°C° 0 mm 2 mps 704 mmHg 84%
    06:00 +2°C° 0 mm 2 mps 704 mmHg 83%
    07:00 +2°C° 0 mm 2 mps 704 mmHg 80%
    08:00 +3°C° 0 mm 2 mps 704 mmHg 77%
    09:00 +4°C° 0 mm 2 mps 704 mmHg 74%
    10:00 +4°C° 0 mm 3 mps 704 mmHg 70%
    11:00 +5°C° 0 mm 3 mps 704 mmHg 66%
    12:00 +8°C° 0 mm 3 mps 704 mmHg 63%
    13:00 +7°C° 0.1 mm 3 mps 704 mmHg 66%
    14:00 +7°C° 0.1 mm 3 mps 704 mmHg 69%
    15:00 +7°C° 0.1 mm 2 mps 703 mmHg 72%
    16:00 +6°C° 0 mm 2 mps 704 mmHg 76%
    17:00 +5°C° 0 mm 2 mps 704 mmHg 81%
    18:00 +5°C° 0 mm 1 mps 704 mmHg 86%
    19:00 +5°C° 0 mm 1 mps 704 mmHg 87%
    20:00 +5°C° 0 mm 1 mps 704 mmHg 89%
    21:00 +5°C° 0 mm 1 mps 704 mmHg 91%
    22:00 +4°C° 0 mm 1 mps 704 mmHg 91%
    23:00 +4°C° 0 mm 1 mps 704 mmHg 92%

    24 February, Saturday

    Time Temperature Precipitation Wind Pressure Humidity
    00:00 +4°C° 0 mm 1 mps 704 mmHg 93%
    01:00 +4°C° 0 mm 1 mps 704 mmHg 93%
    02:00 +4°C° 0 mm 1 mps 704 mmHg 93%
    03:00 +4°C° 0 mm 1 mps 704 mmHg 93%
    04:00 +3°C° 0 mm 1 mps 704 mmHg 93%
    05:00 +3°C° 0 mm 1 mps 704 mmHg 93%
    06:00 +3°C° 0 mm 1 mps 704 mmHg 93%
    07:00 +3°C° 0 mm 1 mps 704 mmHg 91%
    08:00 +4°C° 0 mm 1 mps 704 mmHg 88%
    09:00 +4°C° 0 mm 1 mps 704 mmHg 86%
    10:00 +5°C° 0 mm 1 mps 704 mmHg 82%
    11:00 +6°C° 0 mm 1 mps 704 mmHg 78%
    12:00 +7°C° 0 mm 1 mps 704 mmHg 75%
    13:00 +6°C° 0 mm 2 mps 704 mmHg 75%
    14:00 +6°C° 0 mm 2 mps 704 mmHg 75%
    15:00 +6°C° 0 mm 2 mps 703 mmHg 75%
    16:00 +5°C° 0.1 mm 2 mps 703 mmHg 79%
    17:00 +4°C° 0.1 mm 2 mps 704 mmHg 83%
    18:00 +4°C° 0.1 mm 2 mps 704 mmHg 87%
    19:00 +3°C° 0.2 mm 2 mps 703 mmHg 89%
    20:00 +4°C° 0.2 mm 1 mps 703 mmHg 90%
    21:00 +4°C° 0.2 mm 1 mps 703 mmHg 91%
    22:00 +4°C° 0.2 mm 1 mps 703 mmHg 91%
    23:00 +3°C° 0.2 mm 1 mps 703 mmHg 92%

    25 February, Sunday

    Time Temperature Precipitation Wind Pressure Humidity
    00:00 +3°C° 0.2 mm 1 mps 703 mmHg 93%
    01:00 +3°C° 0.2 mm 1 mps 703 mmHg 93%
    02:00 +3°C° 0.2 mm 1 mps 703 mmHg 93%
    03:00 +3°C° 0.2 mm 1 mps 703 mmHg 94%
    04:00 +3°C° 0.4 mm 1 mps 703 mmHg 94%
    05:00 +1°C° 0.4 mm 2 mps 703 mmHg 95%
    06:00 +1°C° 0.4 mm 2 mps 703 mmHg 95%
    07:00 +1°C° 0.3 mm 2 mps 703 mmHg 95%
    08:00 -1°C° 0.3 mm 2 mps 703 mmHg 94%
    09:00 -1°C° 0.3 mm 2 mps 703 mmHg 94%
    10:00 -1°C° 0.1 mm 3 mps 703 mmHg 93%
    11:00 -1°C° 0.1 mm 3 mps 703 mmHg 92%
    12:00 -1°C° 0.1 mm 3 mps 703 mmHg 90%
    13:00 -1°C° 0.1 mm 3 mps 703 mmHg 90%
    14:00 -2°C° 0.1 mm 3 mps 703 mmHg 90%
    15:00 -2°C° 0.1 mm 3 mps 703 mmHg 90%
    16:00 -4°C° 0.3 mm 3 mps 703 mmHg 91%
    17:00 -4°C° 0.3 mm 3 mps 703 mmHg 92%
    18:00 -5°C° 0.3 mm 3 mps 703 mmHg 93%
    19:00 -5°C° 0.2 mm 3 mps 703 mmHg 93%
    20:00 -5°C° 0.2 mm 3 mps 703 mmHg 93%
    21:00 -6°C° 0.2 mm 3 mps 703 mmHg 93%
    22:00 -6°C° 0.2 mm 3 mps 704 mmHg 93%
    23:00 -6°C° 0.2 mm 3 mps 704 mmHg 93%
    Show more